Location: Casteau
(50.5142°N, 4.0161°E)
Time: 08:36:59
(UTC+00:00)

Sich 1 Rocket - Pass Details

Date: 18 September 2020
Orbit: 616 x 652 km, 82.5° (Epoch: 24 October)

Event Time Altitude Azimuth Distance (km) Brightness Sun altitude
Rises 19:21:08 0° 196° (SSW) 2,918 7.0 -14.9°
Reaches altitude 10° 19:23:22 10° 199° (SSW) 2,021 6.2 -15.2°
Maximum altitude 19:27:50 68° 282° (WNW) 697 4.0 -15.9°
Drops below altitude 10° 19:32:23 10° 6° (N) 2,058 6.5 -16.6°
Sets 19:34:41 0° 9° (N) 2,978 7.3 -16.9°
